Wind_Speed
8 8 7 7 8 8 9 10 11 12 13 14 15 16 17 18 19 20 20 20 21 21 22 22 23 23 24 25 25 26 26 27 28 29 31 32 33 34 35 37 39 41 43
9 9 9 9 10 10 11 12 13 14 15 15 17 18 18 19 20 21 22 22 22 23 23 24 24 24 25 25 26 26 27 28 29 29 31 32 33 35 35 37 39 41 43
10 10 11 11 12 13 14 14 14 15 16 17 18 19 20 21 22 23 23 23 24 25 25 25 25 26 26 27 27 27 28 29 29 30 31 32 33 34 36 37 38 40 42
11 12 13 14 14 15 15 16 16 16 18 19 20 20 21 22 23 24 24 25 26 26 27 27 27 27 28 28 28 29 29 30 30 30 31 31 32 33 35 36 38 40 41
13 13 14 15 16 16 17 17 17 18 19 20 21 22 23 24 25 25 26 27 27 28 29 29 29 29 29 29 30 30 30 31 31 31 31 31 32 33 34 35 36 38 40
15 15 16 17 17 17 17 18 19 20 21 21 22 23 24 25 26 27 27 28 29 30 30 30 30 30 30 30 30 31 31 31 31 31 31 32 33 33 34 35 36 37 38
17 17 18 18 18 18 19 19 20 21 22 23 24 25 25 26 27 28 29 30 31 31 32 31 31 31 31 31 31 31 31 31 31 31 32 32 33 33 34 34 36 37 37
19 19 19 19 19 20 20 21 22 23 24 24 25 26 27 28 29 29 30 32 32 32 32 32 32 32 32 32 32 32 32 32 32 32 32 33 33 33 34 34 34 35 37
20 20 20 20 21 21 22 22 23 24 25 26 26 27 28 29 30 31 33 33 33 33 33 33 33 33 33 33 34 33 33 33 33 33 33 33 33 34 34 34 35 36 36
22 22 22 23 23 23 23 24 25 26 26 27 28 29 30 31 32 33 34 34 34 34 34 34 34 34 34 34 34 34 34 34 34 34 33 33 33 34 34 34 35 36 36
23 23 24 24 24 24 25 25 26 27 28 29 30 31 32 33 34 35 35 35 35 36 36 35 35 35 35 36 36 36 35 35 35 34 34 33 34 33 33 34 34 35 35
24 25 25 25 25 26 26 27 28 29 30 31 31 33 34 34 35 36 36 36 37 37 37 37 37 37 37 37 37 37 37 36 35 35 34 33 33 33 32 32 32 33 33
25 25 26 26 27 27 28 29 30 31 32 32 33 34 35 36 37 38 38 38 38 38 38 38 39 39 39 39 38 38 37 37 36 34 34 33 32 32 31 31 31 31 31
27 27 27 27 28 29 30 31 32 33 33 34 35 36 37 38 38 39 39 40 40 40 40 40 40 40 40 40 39 38 38 37 35 34 33 32 31 30 30 30 30 30 30
28 28 28 29 29 31 32 32 33 34 35 36 37 38 38 39 40 40 41 41 42 42 42 42 42 42 41 41 40 38 37 36 35 33 33 32 31 30 29 29 28 28 28
29 29 29 30 31 32 33 34 35 37 38 38 39 40 40 41 42 42 43 43 44 44 44 44 43 43 42 41 40 38 37 35 34 33 32 31 30 29 28 28 27 27 26
30 30 31 31 33 34 35 37 37 38 39 40 41 42 43 43 44 45 45 45 45 45 45 45 44 43 42 41 40 38 37 35 34 32 31 30 29 28 27 26 26 26 26
30 31 32 34 35 36 38 38 39 40 41 42 42 43 44 45 46 47 47 47 46 46 46 45 45 43 42 41 39 38 36 34 32 31 30 29 27 26 26 26 25 25 25
32 33 35 37 38 38 39 40 41 42 43 44 45 46 47 47 48 48 48 48 48 47 47 46 44 43 42 40 38 37 35 33 31 30 29 27 26 25 25 25 24 23 23
34 35 37 38 38 39 40 42 43 44 45 46 47 48 49 49 49 49 50 49 48 47 46 45 44 42 41 39 37 35 33 31 30 28 27 26 25 24 24 23 23 22 22
36 38 39 39 40 41 42 43 45 46 47 47 48 49 50 50 50 50 50 49 48 47 45 44 43 42 40 38 35 33 32 30 29 27 26 25 24 24 24 23 23 23 22
39 40 41 41 42 43 44 45 46 47 47 48 49 50 51 50 50 49 48 47 46 45 44 43 41 39 37 35 34 32 31 29 28 27 26 24 24 24 24 23 23 22 22
40 40 41 42 43 44 46 47 48 49 49 50 50 50 50 49 48 47 46 45 44 43 42 41 39 37 35 34 33 31 30 28 27 26 25 24 24 23 23 22 22 22 22
41 42 43 44 45 46 47 48 49 49 49 49 49 49 48 47 47 46 45 44 43 41 40 38 36 34 33 32 31 29 28 27 25 24 24 24 23 22 22 22 22 21 20
42 43 44 45 45 46 47 48 49 49 49 49 48 48 47 47 46 45 44 42 40 39 38 36 34 32 30 29 27 26 26 25 24 23 23 23 22 21 20 20 20 20 19
43 44 45 45 46 47 48 49 49 49 48 48 48 47 46 46 44 43 41 39 38 36 35 34 32 30 28 26 25 24 23 23 22 21 20 20 20 19 18 18 18 18 18
Wind_Direction
218 224 233 248 261 273 284 292 299 305 310 314 317 319 320 321 322 322 322 320 317 315 313 310 308 306 304 301 298 294 291 287 284 280 277 274 271 269 265 260 257 255 254
232 240 249 258 267 275 285 294 299 305 310 313 316 318 317 319 321 322 323 321 319 317 315 313 311 308 307 304 301 297 293 290 286 283 280 277 273 270 267 264 260 257 255
247 255 262 268 273 278 286 294 300 305 309 312 313 316 317 318 319 320 321 321 320 318 315 313 311 310 309 306 303 300 296 293 289 286 282 279 276 272 269 266 263 260 257
256 262 268 273 278 281 287 293 299 305 307 310 312 314 316 317 318 319 319 319 320 319 316 313 311 311 310 308 306 303 300 296 292 288 284 281 278 275 272 268 264 261 259
262 267 272 277 280 285 289 293 298 303 306 308 310 312 315 316 317 318 318 319 319 319 317 314 312 311 311 309 307 305 302 299 295 291 287 283 280 277 274 271 267 263 259
267 272 275 278 282 287 293 296 299 302 305 307 309 312 314 316 317 317 318 318 318 318 317 315 313 312 311 310 308 306 304 301 298 294 290 286 282 279 276 272 269 265 262
269 273 277 279 284 288 292 295 298 302 305 307 309 312 314 316 317 317 317 318 318 318 317 315 314 313 312 311 309 307 305 302 299 296 293 289 285 282 278 274 271 267 264
271 274 278 281 285 288 291 294 297 301 304 305 308 310 313 314 315 315 316 317 317 316 316 315 314 314 313 311 310 308 306 304 301 298 294 290 287 284 280 276 272 269 266
270 274 278 282 285 288 292 294 297 300 302 305 307 309 311 313 313 313 315 315 316 316 315 314 314 313 313 311 310 308 306 305 303 300 296 292 289 285 281 277 273 270 267
271 273 277 281 285 288 291 294 297 300 302 304 306 307 310 311 312 312 314 314 315 315 315 314 313 313 312 311 310 308 306 305 304 301 297 294 291 287 283 279 275 271 268
273 275 278 281 284 288 291 294 297 300 302 304 305 307 309 310 312 313 313 313 313 314 314 314 313 312 312 311 310 308 307 305 303 301 298 295 292 289 284 280 276 272 268
275 275 277 280 284 287 291 294 297 299 302 303 305 307 308 310 311 312 313 313 313 313 313 313 313 312 311 311 310 309 307 305 303 302 299 296 293 290 285 281 278 274 270
275 277 279 281 285 287 290 293 297 299 301 302 304 306 307 309 310 311 312 312 312 313 313 312 312 311 311 310 309 308 307 305 303 301 299 297 294 290 286 282 280 276 272
275 278 280 281 285 289 292 294 297 298 300 302 304 305 306 308 309 310 311 311 311 311 311 312 311 310 310 310 309 308 307 305 303 301 299 297 295 290 286 284 281 277 274
275 278 280 283 285 288 290 294 296 298 300 301 302 303 305 306 307 308 309 309 310 310 310 310 311 310 309 309 308 307 306 304 303 300 298 296 294 291 287 284 281 278 275
275 277 280 283 286 288 291 294 296 298 300 301 302 303 304 306 306 307 308 308 309 309 310 310 309 309 309 308 308 307 306 304 302 299 297 295 293 291 288 285 282 278 274
276 278 280 283 286 289 291 293 296 298 299 301 302 303 304 305 306 306 307 307 308 308 309 309 308 308 307 307 307 305 304 302 300 298 296 294 293 291 288 285 283 279 275
276 279 282 285 287 289 291 294 295 297 299 300 301 302 303 304 304 305 306 306 307 307 307 307 307 306 306 306 305 303 302 301 299 297 294 293 293 290 288 287 285 281 276
278 281 283 286 287 289 292 294 296 297 298 299 300 302 303 303 303 304 305 305 306 306 306 306 306 305 305 304 302 301 299 298 297 295 292 291 291 290 289 288 286 282 277
278 281 284 286 288 290 292 294 296 296 297 298 300 301 302 303 304 304 305 305 305 305 305 305 304 304 303 302 300 298 297 296 295 293 291 289 288 288 288 287 286 283 278
280 283 285 287 289 291 292 294 296 296 298 299 300 301 302 303 303 304 304 304 304 304 303 303 302 302 301 299 298 296 294 293 291 290 288 287 285 285 286 285 284 282 279
282 284 286 288 290 291 293 294 295 296 298 299 300 301 302 302 303 303 303 303 303 303 302 302 301 300 299 298 295 292 290 289 288 286 286 284 282 283 283 282 283 282 280
284 286 288 290 291 292 293 294 295 297 298 299 300 301 302 302 302 303 303 303 303 303 302 302 301 299 297 296 293 290 287 285 283 283 282 282 281 281 280 280 281 282 280
286 287 289 290 290 292 293 294 296 298 299 300 300 301 302 302 302 303 303 303 303 303 303 302 300 299 297 295 292 289 285 283 280 279 279 280 278 277 278 280 281 282 280
287 288 288 289 291 293 294 296 297 298 299 300 301 301 302 302 302 302 301 301 302 302 303 302 300 299 297 294 291 287 284 281 277 277 276 276 275 275 276 278 280 281 279
286 287 289 291 293 294 295 297 298 298 299 300 300 301 301 301 301 301 300 300 300 301 301 301 299 297 295 292 289 286 283 280 276 275 275 274 274 275 277 278 278 279 278
Height
5858 5859 5859 5860 5860 5859 5859 5858 5857 5855 5854 5852 5849 5847 5844 5841 5838 5835 5832 5829 5826 5822 5819 5816 5813 5810 5807 5804 5802 5799 5797 5794 5792 5790 5789 5787 5787 5787 5787 5788 5789 5790 5792
5856 5857 5857 5857 5857 5857 5856 5855 5854 5852 5850 5848 5846 5843 5840 5837 5834 5831 5827 5824 5821 5817 5814 5810 5807 5804 5801 5798 5794 5792 5789 5786 5784 5782 5780 5778 5777 5776 5776 5777 5777 5779 5780
5854 5855 5855 5855 5855 5854 5853 5852 5850 5848 5846 5844 5841 5839 5836 5832 5829 5826 5822 5819 5815 5811 5808 5804 5800 5797 5794 5790 5787 5784 5781 5778 5775 5773 5771 5769 5768 5767 5766 5766 5766 5767 5768
5851 5852 5852 5852 5851 5850 5849 5848 5846 5844 5842 5839 5837 5834 5831 5827 5824 5821 5817 5813 5809 5805 5801 5797 5793 5790 5786 5783 5779 5775 5772 5769 5766 5764 5762 5760 5758 5756 5756 5755 5755 5755 5756
5848 5849 5848 5848 5847 5846 5845 5843 5842 5839 5837 5834 5832 5829 5825 5822 5819 5815 5811 5807 5803 5799 5795 5790 5786 5783 5779 5775 5771 5767 5763 5760 5757 5754 5752 5750 5748 5747 5745 5744 5744 5743 5744
5845 5845 5844 5844 5843 5842 5840 5839 5837 5834 5832 5829 5826 5823 5820 5816 5813 5809 5805 5801 5797 5792 5788 5783 5779 5775 5771 5767 5763 5759 5755 5751 5748 5745 5743 5740 5738 5736 5735 5733 5733 5732 5733
5840 5840 5840 5839 5838 5837 5835 5833 5831 5829 5826 5823 5820 5817 5814 5810 5806 5802 5798 5794 5790 5785 5780 5776 5771 5767 5763 5759 5754 5750 5747 5743 5739 5736 5733 5730 5728 5726 5724 5723 5722 5721 5721
5836 5835 5835 5834 5833 5831 5830 5827 5825 5823 5820 5817 5814 5811 5808 5804 5800 5796 5791 5787 5782 5778 5773 5768 5763 5759 5754 5750 5746 5742 5738 5734 5730 5727 5723 5720 5718 5715 5713 5712 5710 5710 5710
5830 5830 5829 5828 5827 5826 5824 5821 5819 5817 5814 5811 5808 5805 5801 5797 5793 5789 5784 5780 5775 5770 5765 5760 5756 5751 5747 5742 5737 5733 5729 5725 5721 5717 5713 5710 5707 5705 5703 5701 5700 5699 5699
5825 5824 5823 5822 5821 5819 5817 5815 5813 5811 5808 5804 5801 5798 5794 5790 5786 5781 5777 5772 5767 5762 5757 5752 5747 5743 5738 5733 5729 5724 5720 5715 5711 5707 5703 5700 5697 5694 5691 5690 5688 5687 5687
5818 5818 5817 5816 5814 5813 5811 5809 5806 5804 5801 5797 5794 5790 5786 5782 5778 5773 5768 5764 5758 5753 5748 5743 5739 5734 5729 5724 5719 5715 5710 5706 5701 5697 5693 5689 5686 5683 5680 5678 5677 5675 5675
5812 5811 5810 5809 5807 5806 5804 5802 5799 5796 5793 5790 5786 5782 5778 5774 5770 5765 5760 5755 5750 5744 5739 5734 5729 5725 5720 5715 5710 5705 5700 5695 5691 5687 5683 5679 5675 5672 5670 5668 5666 5665 5664
5805 5804 5803 5802 5800 5798 5796 5794 5791 5788 5785 5782 5778 5774 5770 5766 5761 5756 5751 5746 5740 5735 5730 5725 5720 5715 5710 5705 5700 5695 5690 5685 5680 5676 5673 5669 5665 5662 5659 5658 5656 5655 5654
5798 5797 5796 5794 5792 5790 5788 5786 5783 5780 5776 5773 5769 5765 5761 5756 5752 5746 5741 5736 5731 5726 5721 5715 5710 5705 5699 5694 5689 5684 5679 5674 5670 5666 5663 5659 5656 5653 5650 5648 5646 5645 5644
5790 5789 5787 5786 5784 5782 5780 5777 5774 5771 5768 5764 5760 5756 5751 5747 5742 5737 5731 5726 5721 5716 5710 5705 5700 5694 5689 5684 5678 5674 5669 5664 5660 5656 5653 5649 5646 5643 5641 5639 5637 5635 5634
5782 5781 5779 5778 5776 5773 5771 5768 5765 5762 5758 5754 5750 5746 5741 5737 5732 5727 5721 5716 5710 5705 5699 5694 5689 5683 5678 5673 5668 5663 5659 5654 5650 5646 5643 5640 5637 5634 5632 5630 5628 5626 5625
5773 5772 5770 5769 5767 5764 5761 5758 5755 5752 5748 5744 5740 5735 5731 5726 5721 5716 5710 5705 5699 5694 5688 5683 5677 5672 5667 5662 5657 5652 5648 5644 5640 5636 5633 5630 5627 5625 5623 5621 5619 5617 5616
5764 5763 5761 5759 5757 5754 5751 5748 5745 5741 5737 5733 5729 5724 5720 5715 5709 5704 5698 5693 5688 5682 5677 5671 5666 5661 5656 5651 5646 5642 5638 5634 5630 5627 5624 5621 5618 5616 5614 5612 5610 5609 5608
5755 5753 5752 5749 5747 5744 5741 5738 5734 5730 5726 5722 5717 5712 5707 5703 5697 5692 5686 5680 5675 5670 5664 5659 5654 5649 5644 5640 5635 5631 5627 5624 5621 5618 5615 5612 5610 5608 5606 5604 5603 5601 5600
5745 5743 5741 5739 5736 5733 5730 5726 5722 5718 5714 5710 5705 5700 5694 5689 5684 5679 5673 5668 5662 5657 5652 5647 5642 5637 5632 5628 5624 5621 5617 5614 5612 5609 5606 5604 5602 5600 5599 5597 5595 5594 5592
5734 5732 5730 5727 5725 5722 5718 5714 5710 5706 5701 5697 5692 5687 5681 5676 5671 5665 5660 5654 5649 5644 5639 5634 5629 5624 5620 5616 5613 5610 5607 5605 5602 5600 5598 5596 5594 5593 5591 5590 5588 5586 5585
5723 5721 5718 5716 5713 5709 5706 5702 5697 5693 5688 5683 5678 5673 5668 5663 5657 5652 5646 5641 5636 5631 5626 5621 5616 5612 5608 5605 5602 5599 5597 5595 5593 5591 5590 5588 5586 5585 5584 5582 5581 5579 5578
5711 5709 5706 5703 5700 5697 5693 5688 5684 5679 5674 5669 5665 5659 5654 5649 5644 5639 5633 5628 5623 5618 5613 5609 5605 5601 5597 5594 5591 5589 5587 5585 5584 5583 5581 5580 5578 5577 5576 5574 5573 5572 5570
5699 5696 5693 5690 5687 5683 5679 5675 5670 5665 5661 5656 5651 5646 5641 5636 5631 5626 5621 5616 5611 5606 5602 5597 5593 5589 5586 5583 5581 5579 5577 5576 5574 5574 5573 5572 5570 5570 5568 5567 5566 5565 5563
5687 5684 5680 5677 5673 5669 5665 5661 5656 5652 5647 5642 5637 5632 5627 5623 5618 5613 5608 5604 5599 5595 5591 5586 5582 5579 5576 5573 5571 5569 5568 5567 5566 5565 5564 5564 5563 5562 5561 5560 5559 5558 5557
5674 5671 5667 5663 5660 5656 5652 5647 5643 5638 5633 5628 5624 5619 5614 5610 5605 5600 5596 5591 5588 5584 5580 5576 5573 5569 5566 5564 5562 5561 5560 5559 5558 5557 5557 5556 5556 5555 5554 5553 5553 5552 5551